Voltar ao catálogo

FENGYUN 1C DEB

AtivoPO
NORAD 30112·DEBRIS·🇨🇳 China

Lançado May 10, 1999 de Taiyuan Satellite Launch Center

Loading…

Próximas Passagens (próximas 24 horas)

TLE

AtualizadoSource: Space-Track

Época: Sep 14, 2026, 09:38 UTC

1 30112U 99025RR  26257.40155346  .00001139  00000-0  43004-3 0  9990
2 30112  99.3057 251.6318 0200124  43.8124 317.8734 14.23034980 15013

Acompanhe FENGYUN 1C DEB em tempo real com AllMySat

Download on the App Store